User: anonymous   Login
Location: Irma
(52.9170°N, 111.2330°W)
Time: 18:12:47
(UTC-07:00)
Language:

deb Chang Zheng 4 - Orbit

View from above orbital plane
View from above orbital plane
View from above satellite
View from above satellite

Ground track
Ground track

The orbit data is extracted from the following two-line orbital elements,

1 20847U 90081K   17022.68419100 +.00001933 +00000-0 +26443-3 0  9998
2 20847 098.5444 257.6885 0016734 168.2322 191.9282 14.79735219384075
Epoch (UTC): 22 January 2017 16:25:14
Eccentricity: 0.0016734
inclination: 98.5444°
perigee height: 618 km
apogee height: 642 km
right ascension of ascending node: 257.6885°
argument of perigee: 168.2322°
revolutions per day: 14.79735219
mean anomaly at epoch: 191.9282°
orbit number at epoch: 38407

The dashed part of the orbit path shows where the satellite is in the earth's shadow,  

DLR